Location: Peebles
(55.6412°N, 3.1714°W)
Time: 10:56:10
(UTC+00:00)

CUTE-I - Pass Details

Date: 17 December 2023
Orbit: 807 x 823 km, 98.7° (Epoch: 24 February)

Event Time Altitude Azimuth Distance (km) Brightness Sun altitude
Rises 18:57:00 0° 211° (SSW) 3,330 ? -25.8°
Reaches altitude 10° 19:00:02 10° 229° (SW) 2,407 ? -26.2°
Maximum altitude 19:03:44 19° 273° (W) 1,870 ? -26.8°
Drops below altitude 10° 19:07:28 10° 318° (NW) 2,426 ? -27.3°
Sets 19:10:34 0° 336° (NNW) 3,367 ? -27.7°
